This demonstration page uses our WeatherBlox Daily Observations layout. Learn more.

Left ArrowRight Arrow

41.55636, -103.73856

Hourly Observations for July 19, 2020

Temp ( °F °C ) Dew Point ( °F °C ) Humidity (%) Winds ( mph kmh ) Pressure ( in mb ) Visibility ( mi km ) Precip ( " mm )
6:58 pm 18:58 Mostly Cloudy with Nearby Thunderstorms 79 26.2 54 12 41 41 S 20 31 29.96 1014 10 16 0.00 0.00
7:58 pm 19:58 Partly Cloudy 66 19 60 15.5 80 80 NNE 6 9 29.97 1015 10 16 0.32 8.13
8:58 pm 20:58 Clear 67 19.3 60 15.3 78 78 ESE 10 17 29.93 1014 10 16 0.00 0.00
9:58 pm 21:58 Clear 67 19.2 59 14.8 76 76 ESE 10 17 29.95 1014 10 16 0.00 0.00
10:58 pm 22:58 Clear 66 19 58 14.3 74 74 ESE 12 19 29.95 1014 10 16 0.00 0.00
11:58 pm 23:58 Clear 66 19 57 14 73 73 SE 13 20 29.98 1015 10 16 0.00 0.00
12:58 am 00:58 Clear 66 19 57 14.1 73 73 SSE 15 24 29.99 1016 10 16 0.00 0.00
1:58 am 01:58 Clear 65 18.3 58 14.4 78 78 SSE 15 24 29.99 1016 10 16 0.00 0.00
2:58 am 02:58 Clear 64 17.7 58 14.5 82 82 S 14 22 30.00 1016 10 16 0.00 0.00
3:58 am 03:58 Mostly Clear 63 17.2 58 14.6 85 85 Calm 30.03 1017 10 16 0.00 0.00
4:58 am 04:58 Clear 62 16.8 58 14.4 86 86 SSE 7 11 30.01 1016 10 16 0.00 0.00
5:58 am 05:58 Sunny 62 16.6 56 13.6 83 83 SE 6 9 30.00 1016 10 16 0.00 0.00
6:58 am 06:58 Sunny 62 16.8 58 14.6 87 87 Calm 30.03 1017 10 16 0.00 0.00
7:58 am 07:58 Cloudy 65 18.4 61 16.3 88 88 S 8 13 30.03 1017 10 16 0.00 0.00
8:58 am 08:58 Sunny 70 21.1 63 17.1 78 78 SE 15 24 30.00 1016 10 16 0.00 0.00
9:58 am 09:58 Sunny 73 22.8 62 16.8 69 69 S 16 26 29.98 1015 10 16 0.00 0.00
10:58 am 10:58 Partly Cloudy 76 24.6 61 16 59 59 SSE 12 19 29.97 1015 10 16 0.00 0.00
11:58 am 11:58 Sunny 81 27.2 59 15 47 47 SSE 12 19 29.93 1014 10 16 0.00 0.00
12:58 pm 12:58 Sunny 85 29.3 55 12.6 36 36 SSW 9 15 29.91 1013 10 16 0.00 0.00
1:58 pm 13:58 Sunny 87 30.6 54 12.4 33 33 W 6 9 29.88 1012 10 16 0.00 0.00
2:58 pm 14:58 Sunny 89 31.4 53 11.9 30 30 SW 9 15 29.85 1011 10 16 0.00 0.00
3:58 pm 15:58 Mostly Sunny 90 32 55 12.7 31 31 ENE 17 28 29.82 1010 10 16 0.00 0.00
4:58 pm 16:58 Mostly Cloudy 84 28.9 54 12.4 36 36 SE 17 28 29.85 1011 10 16 0.00 0.00
5:58 pm 17:58 Mostly Cloudy with Thunderstorms 69 20.5 61 15.9 75 75 SE 15 24 29.86 1011 10 16 0.09 2.29

Powered by AerisWeather